Farmingdale, NY

1:28 AM EDT on August 26, 2016 (GMT -0400)
Republic

Weather History for KFRG - January, 2013

Change the Weather History Date:

Wednesday, January 23, 2013

  Actual Average Record
Temperature  
Mean Temperature 14 °F -  
Max Temperature 19 °F 34 °F 53 °F (1999)
Min Temperature 10 °F 21 °F 6 °F (2014)
Degree Days  
Heating Degree Days 50    
Moisture  
Dew Point -5 °F    
Average Humidity 41    
Maximum Humidity 49    
Minimum Humidity 31    
Precipitation  
Precipitation 0.00 in - - ()
Sea Level Pressure  
Sea Level Pressure 30.20 in    
Wind  
Wind Speed 9 mph (NW)    
Max Wind Speed 14 mph    
Max Gust Speed 23 mph    
Visibility 10 miles    
Events      
Averages and records for this station are not official NWS values.
T = Trace of Precipitation, MM = Missing Value Source: NWS Daily Summary

Daily Weather History Graph

Daily Weather History Graph

Search for Another Location

Airport or City:

Trip Planner

Search our weather history database for the weather conditions in past years. The results will help you decide how hot, cold, wet, or windy it might be!

Date:

Astronomy

Jan. 23, 2013 Rise Set
Actual Time 7:11 AM EST 5:00 PM EST
Civil Twilight 6:41 AM EST 5:30 PM EST
Nautical Twilight 6:08 AM EST 6:03 PM EST
Astronomical Twilight 5:35 AM EST 6:35 PM EST
Moon 2:08 PM EST (1/23) 4:20 AM EST (1/23)
Length of Visible Light 10h 48m
Length of Day
9h 49m
Waxing Gibbous, 89% of the Moon is Illuminated
Jan 23
Waxing Gibbous
Jan 26
Full
Feb 3
Last Quarter
Feb 10
New
Feb 17
First Quarter

Hourly Weather History & Observations

Time (EST) Temp. Windchill Dew Point Humidity Pressure Visibility Wind Dir Wind Speed Gust Speed Precip Events Conditions
12:53 AM 12.9 °F 1.6 °F -9.0 °F 37% 30.19 in 10.0 mi WNW 8.1 mph 20.7 mph N/A   Clear
2:53 AM 12.0 °F -1.3 °F -6.0 °F 44% 30.22 in 10.0 mi WNW 10.4 mph 18.4 mph N/A   Clear
3:53 AM 12.0 °F 0.5 °F -6.0 °F 44% 30.21 in 10.0 mi WNW 8.1 mph - N/A   Clear
4:53 AM 10.9 °F -1.8 °F -6.0 °F 47% 30.21 in 10.0 mi WNW 9.2 mph - N/A   Clear
5:53 AM 10.9 °F -0.8 °F -6.0 °F 47% 30.21 in 10.0 mi WNW 8.1 mph - N/A   Clear
7:53 AM 12.0 °F 2.7 °F -4.0 °F 49% 30.23 in 10.0 mi WNW 5.8 mph - N/A   Clear
8:53 AM 12.9 °F -0.9 °F -2.9 °F 49% 30.24 in 10.0 mi NW 11.5 mph 19.6 mph N/A   Clear
9:53 AM 15.1 °F 1.1 °F -5.1 °F 41% 30.25 in 10.0 mi NNW 12.7 mph 20.7 mph N/A   Partly Cloudy
10:53 AM 16.0 °F 4.4 °F -5.1 °F 39% 30.25 in 10.0 mi WNW 9.2 mph 20.7 mph N/A   Partly Cloudy
11:53 AM 17.1 °F 3.0 °F -5.1 °F 37% 30.21 in 10.0 mi NW 13.8 mph 23.0 mph N/A   Clear
12:53 PM 19.0 °F 6.1 °F -6.0 °F 33% 30.18 in 10.0 mi NW 12.7 mph 21.9 mph N/A   Partly Cloudy
1:53 PM 19.0 °F 7.5 °F -6.0 °F 33% 30.17 in 10.0 mi NW 10.4 mph 18.4 mph N/A   Mostly Cloudy
2:53 PM 19.0 °F 7.5 °F -5.1 °F 34% 30.17 in 10.0 mi NW 10.4 mph - N/A   Scattered Clouds
3:53 PM 19.0 °F 6.1 °F -7.1 °F 31% 30.17 in 10.0 mi NW 12.7 mph 19.6 mph N/A   Scattered Clouds
4:53 PM 18.0 °F 4.8 °F -6.0 °F 35% 30.17 in 10.0 mi NW 12.7 mph 19.6 mph N/A   Partly Cloudy
5:53 PM 17.1 °F 8.7 °F -5.1 °F 37% 30.19 in 10.0 mi WNW 5.8 mph - N/A   Scattered Clouds
6:53 PM 16.0 °F 6.3 °F -6.0 °F 38% 30.20 in 10.0 mi NW 6.9 mph - N/A   Clear
7:53 PM 16.0 °F 7.4 °F -4.0 °F 41% 30.20 in 10.0 mi NW 5.8 mph - N/A   Clear
8:53 PM 15.1 °F 6.4 °F -2.9 °F 45% 30.20 in 10.0 mi NW 5.8 mph - N/A   Clear
9:53 PM 14.0 °F 8.2 °F -2.0 °F 49% 30.20 in 10.0 mi WNW 3.5 mph - N/A   Clear
10:53 PM 14.0 °F 8.2 °F -2.0 °F 49% 30.20 in 10.0 mi West 3.5 mph - N/A   Clear
11:53 PM 14.0 °F - -2.0 °F 49% 30.19 in 10.0 mi Calm Calm - N/A   Clear